EW6229 Weather Reports


time (UTC)temp
F
wind
direction
speed
knots
gust
knots
rain 1hr
in
rain 24hr
in
rain mn
in
humidity
%
barometer
mb
20260507100047 59 118 2.6 10.4 0.00 0.00 0.00 48 1011.5
20260507095810 58 142 3.5 10.4 0.00 0.00 0.00 48 1011.7
20260507095314 57 126 3.5 8.7 0.00 0.00 0.00 50 1011.4
20260507094546 56 109 3.5 9.6 0.00 0.00 0.00 51 1011.8
20260507094047 56 108 3.5 9.6 0.00 0.00 0.00 52 1011.8
20260507093548 56 178 3.5 7.8 0.00 0.00 0.00 53 1011.8
20260507093047 56 132 3.5 9.6 0.00 0.00 0.00 51 1011.7
20260507092547 56 146 3.5 9.6 0.00 0.00 0.00 56 1011.5
20260507092048 55 165 2.6 8.7 0.00 0.00 0.00 55 1011.7
20260507091547 54 205 0.9 4.3 0.00 0.00 0.00 64 1011.8
20260507091047 53 155 0.9 2.6 0.00 0.00 0.00 65 1011.8
20260507090546 53 121 0.9 2.6 0.00 0.00 0.00 65 1011.8
20260507090309 53 273 0.9 4.3 0.00 0.00 0.00 66 1011.8
20260507085808 53 273 1.7 6.1 0.00 0.00 0.00 67 1011.8
20260507085047 53 309 1.7 7.0 0.00 0.00 0.00 68 1011.8
20260507084545 52 289 1.7 7.0 0.00 0.00 0.00 68 1011.8
20260507084045 53 344 1.7 7.0 0.00 0.00 0.00 70 1011.8
20260507083545 52 282 1.7 6.1 0.00 0.00 0.00 71 1011.8
20260507083044 52 263 1.7 6.1 0.00 0.00 0.00 72 1011.8
20260507083038 51 167 3.5 8.7 0.00 0.00 0.00 73 1011.8
20260507082045 51 327 4.3 9.6 0.00 0.00 0.00 74 1011.9
20260507081545 51 292 4.3 9.6 0.00 0.00 0.00 74 1011.8
20260507081303 51 315 3.5 8.7 0.00 0.00 0.00 74 1011.7
20260507080541 51 293 4.3 10.4 0.00 0.00 0.00 72 1011.8
20260507080306 52 298 4.3 10.4 0.00 0.00 0.00 72 1011.7
20260507075541 52 311 4.3 9.6 0.00 0.00 0.00 72 1011.7
20260507075040 53 321 3.5 8.7 0.00 0.00 0.00 73 1011.5
20260507074541 51 316 1.7 8.7 0.00 0.00 0.00 77 1011.5
20260507074040 50 32 0.0 2.6 0.00 0.00 0.00 74 1011.7
20260507073539 49 318 0.9 2.6 0.00 0.00 0.00 77 1011.8
20260507073037 50 318 0.9 2.6 0.00 0.00 0.00 78 1011.7
20260507072537 48 346 0.0 0.9 0.00 0.00 0.00 80 1011.9
20260507072037 48 44 0.0 2.6 0.00 0.00 0.00 79 1011.8
20260507071759 48 44 0.0 2.6 0.00 0.00 0.00 81 1011.8
20260507071031 47 44 0.0 2.6 0.00 0.00 0.00 81 1011.8
20260507070751 47 44 0.9 3.5 0.00 0.00 0.00 80 1011.8
20260507070033 47 44 0.9 3.5 0.00 0.00 0.00 80 1011.8
20260507065529 47 33 1.7 4.3 0.00 0.00 0.00 82 1011.8
20260507065245 46 58 0.9 4.3 0.00 0.00 0.00 85 1011.8
20260507064523 45 41 0.0 2.6 0.00 0.00 0.00 86 1011.9
20260507064021 45 44 0.0 1.7 0.00 0.00 0.00 87 1011.8
20260507063518 44 44 0.0 0.9 0.00 0.00 0.00 88 1011.7
20260507063018 44 44 0.0 1.7 0.00 0.00 0.00 89 1011.8
20260507062519 43 44 0.9 1.7 0.00 0.00 0.00 91 1011.8
20260507062246 42 326 1.7 2.6 0.00 0.00 0.00 92 1011.9
20260507061514 41 326 1.7 3.5 0.00 0.00 0.00 93 1011.9
20260507061014 40 0 0.9 3.5 0.00 0.00 0.00 93 1011.7
20260507060515 40 60 0.9 2.6 0.00 0.00 0.00 92 1011.7
20260507060013 40 60 0.0 0.0 0.00 0.00 0.00 93 1011.8
20260507055511 40 60 0.0 0.0 0.00 0.00 0.00 93 1011.7
20260507055006 40 60 0.0 0.0 0.00 0.00 0.00 92 1011.7
20260507054508 40 60 0.0 0.0 0.00 0.00 0.00 93 1011.7
20260507054228 40 60 0.0 0.0 0.00 0.00 0.00 92 1011.7
20260507053503 40 60 0.0 0.0 0.00 0.00 0.00 92 1011.7
20260507053243 40 60 0.0 0.0 0.00 0.00 0.00 92 1011.5
20260507052502 40 60 0.0 0.0 0.00 0.00 0.00 91 1011.5
20260507052001 40 60 0.0 0.0 0.00 0.00 0.00 91 1011.5
20260507051504 40 60 0.0 0.0 0.00 0.00 0.00 91 1011.5
20260507051000 40 60 0.0 0.0 0.00 0.00 0.00 91 1011.5
20260507050454 40 60 0.0 0.0 0.00 0.00 0.00 91 1011.5
20260507050210 40 60 0.0 0.0 0.00 0.00 0.00 91 1011.5
20260507045704 40 60 0.0 0.0 0.00 0.00 0.00 91 1011.4
20260507044940 41 60 0.0 0.0 0.00 0.00 0.00 90 1011.4
20260507044440 41 60 0.0 0.0 0.00 0.00 0.00 90 1011.3
20260507043940 41 60 0.0 0.0 0.00 0.00 0.00 90 1011.4
20260507043440 41 60 0.0 0.0 0.00 0.00 0.00 90 1011.4
20260507043204 41 60 0.0 0.0 0.00 0.00 0.00 89 1011.4
20260507042441 41 60 0.0 0.0 0.00 0.00 0.00 90 1011.4
20260507041940 41 60 0.0 0.0 0.00 0.00 0.00 90 1011.4
20260507041659 42 60 0.0 0.0 0.00 0.00 0.00 89 1011.3
20260507040937 42 60 0.0 0.9 0.00 0.00 0.00 89 1011.4
20260507040436 42 60 0.9 2.6 0.00 0.00 0.00 88 1011.3
20260507035934 42 60 0.9 2.6 0.00 0.00 0.00 89 1011.2
20260507035433 42 332 0.0 1.7 0.00 0.00 0.00 89 1011.2
20260507034930 42 113 0.0 1.7 0.00 0.00 0.00 89 1011.2
20260507034428 42 113 0.9 1.7 0.00 0.00 0.00 89 1011.0
20260507033926 42 113 0.0 1.7 0.00 0.00 0.00 89 1011.0
20260507033425 41 113 0.0 0.9 0.00 0.00 0.00 89 1011.0
20260507032924 41 113 0.0 0.9 0.00 0.00 0.00 89 1010.9
20260507032424 42 113 0.0 0.9 0.00 0.00 0.00 88 1010.8
20260507031922 42 113 0.0 1.7 0.00 0.00 0.00 88 1010.8
20260507031423 42 113 0.0 1.7 0.00 0.00 0.00 87 1010.6
20260507030920 42 113 0.0 0.9 0.00 0.00 0.00 88 1010.5
20260507030420 42 113 0.0 0.9 0.00 0.00 0.00 87 1010.6
20260507025918 42 113 0.0 0.9 0.00 0.00 0.00 88 1010.6
20260507025645 42 113 0.0 0.9 0.00 0.00 0.00 87 1010.5
20260507024918 42 113 0.0 0.9 0.00 0.00 0.00 88 1010.4
20260507024416 42 113 0.0 0.9 0.00 0.00 0.00 87 1010.3
20260507023918 42 113 0.0 0.9 0.00 0.00 0.00 87 1010.3
20260507023415 42 113 0.0 1.7 0.00 0.00 0.00 86 1010.3
20260507022921 42 113 0.9 1.7 0.00 0.00 0.00 87 1010.2
20260507022417 42 113 0.9 1.7 0.00 0.00 0.00 87 1010.2
20260507021917 42 113 0.0 1.7 0.00 0.00 0.00 87 1010.2
20260507021418 42 113 0.0 0.9 0.00 0.00 0.00 87 1010.2
20260507020918 42 113 0.9 2.6 0.00 0.00 0.00 86 1010.2
20260507020413 42 113 0.9 2.6 0.00 0.00 0.00 87 1010.2
20260507015914 42 104 0.0 2.6 0.00 0.00 0.00 86 1010.2
20260507015412 42 132 0.0 1.7 0.00 0.00 0.00 86 1010.3
20260507014914 43 132 0.9 2.6 0.00 0.00 0.00 85 1010.2
20260507014412 42 132 0.0 2.6 0.00 0.00 0.00 86 1010.1
20260507013913 42 91 0.0 0.0 0.00 0.00 0.00 86 1010.1
20260507013418 43 91 0.0 0.0 0.00 0.00 0.00 84 1010.1
20260507012914 42 91 0.0 0.0 0.00 0.00 0.00 85 1010.0
20260507012412 43 91 0.0 0.0 0.00 0.00 0.00 84 1010.1
20260507011917 43 91 0.0 0.0 0.00 0.00 0.00 84 1010.1
20260507011411 43 91 0.0 0.0 0.00 0.00 0.00 83 1010.0
20260507011134 43 91 0.0 0.0 0.00 0.00 0.00 83 1010.0
20260507010412 43 91 0.0 0.0 0.00 0.00 0.00 82 1010.1
20260507005911 44 91 0.0 1.7 0.00 0.00 0.00 82 1010.1
20260507005410 44 46 0.0 1.7 0.00 0.00 0.00 81 1010.0
20260507004911 44 0 0.0 1.7 0.00 0.00 0.00 80 1010.0
20260507004637 45 0 0.0 1.7 0.00 0.00 0.00 80 1010.0
20260507003909 45 350 0.0 0.0 0.00 0.00 0.00 78 1010.1
20260507003408 45 350 0.0 2.6 0.00 0.00 0.00 78 1010.0
20260507002907 46 350 0.9 3.5 0.00 0.00 0.00 77 1010.1
20260507002405 46 334 0.9 3.5 0.00 0.00 0.00 77 1010.0
20260507001904 46 331 0.9 3.5 0.00 0.00 0.00 76 1010.0
20260507001405 46 0 0.9 2.6 0.00 0.00 0.00 75 1010.0
20260507000912 47 300 0.9 3.5 0.00 0.00 0.00 71 1010.0
20260507000906 47 0 0.9 2.6 0.00 0.00 0.00 74 1010.0
20260506235904 48 190 1.7 3.5 0.00 0.00 0.00 68 1010.0
20260506235404 49 139 1.7 4.3 0.00 0.00 0.00 65 1010.0
20260506234903 49 135 1.7 7.0 0.00 0.00 0.00 64 1009.9
20260506234404 49 119 1.7 7.0 0.00 0.00 0.00 63 1010.0
20260506233903 50 141 2.6 7.0 0.00 0.00 0.00 62 1009.7
20260506233401 51 130 2.6 7.8 0.00 0.00 0.00 60 1009.7
20260506232902 51 148 3.5 8.7 0.00 0.00 0.00 60 1009.7
20260506232401 51 148 4.3 10.4 0.00 0.00 0.00 57 1009.7
20260506231902 51 161 4.3 10.4 0.00 0.00 0.00 60 1009.7
20260506231401 51 146 4.3 10.4 0.00 0.00 0.00 59 1009.9
20260506231351 52 150 4.3 11.3 0.00 0.00 0.00 56 1009.7
20260506230402 51 90 3.5 11.3 0.00 0.00 0.00 58 1009.7
20260506225901 52 154 4.3 9.6 0.00 0.00 0.00 58 1010.0
20260506225407 52 210 6.1 11.3 0.00 0.00 0.00 57 1009.9
20260506224901 51 134 4.3 11.3 0.00 0.00 0.00 58 1009.9
20260506224354 51 148 6.1 9.6 0.00 0.00 0.00 61 1009.9
20260506223851 51 165 7.0 9.6 0.00 0.00 0.00 60 1009.9
20260506223352 51 141 6.1 11.3 0.00 0.00 0.00 62 1009.7
20260506222852 51 161 4.3 11.3 0.00 0.00 0.00 63 1009.6
20260506222351 52 98 6.1 11.3 0.00 0.00 0.00 60 1009.7
20260506221851 52 161 6.1 11.3 0.00 0.00 0.00 57 1009.6
20260506221353 52 161 6.1 11.3 0.00 0.00 0.00 56 1009.6
20260506220851 52 147 4.3 11.3 0.00 0.00 0.00 59 1009.7
20260506220352 51 163 4.3 10.4 0.00 0.00 0.00 61 1009.7
20260506220117 52 141 6.1 10.4 0.00 0.00 0.00 59 1009.6
20260506215348 52 163 7.0 13.0 0.00 0.00 0.00 59 1009.5
20260506215117 52 176 7.0 13.0 0.00 0.00 0.00 61 1009.4
20260506214349 51 180 6.1 13.0 0.00 0.00 0.00 61 1009.5
20260506213847 52 158 4.3 11.3 0.00 0.00 0.00 61 1009.5
20260506213346 52 188 4.3 9.6 0.00 0.00 0.00 61 1009.5
20260506212847 52 161 4.3 10.4 0.00 0.00 0.00 60 1009.4
20260506212346 52 173 6.1 10.4 0.00 0.00 0.00 60 1009.3
20260506211843 52 199 6.1 12.2 0.00 0.00 0.00 61 1009.3
20260506211343 52 138 7.0 12.2 0.00 0.00 0.00 61 1009.3
20260506210842 52 174 7.0 12.2 0.00 0.00 0.00 62 1009.3
20260506210343 52 150 7.0 12.2 0.00 0.00 0.00 61 1009.3
20260506205843 53 146 6.1 11.3 0.00 0.00 0.00 61 1009.2
20260506205611 53 213 6.1 10.4 0.00 0.00 0.00 61 1009.2
20260506205125 53 227 6.1 10.4 0.00 0.00 0.00 62 1009.1
20260506204606 53 159 6.1 11.3 0.00 0.00 0.00 62 1009.2
20260506203838 52 141 7.0 11.3 0.00 0.00 0.00 64 1009.2
20260506203339 53 143 7.0 11.3 0.00 0.00 0.00 65 1009.1
20260506202840 53 145 7.8 16.5 0.00 0.00 0.00 63 1009.1
20260506202558 53 162 7.0 16.5 0.00 0.00 0.00 62 1009.2
20260506201835 53 172 6.1 11.3 0.00 0.00 0.00 63 1008.8
20260506201334 53 164 7.0 12.2 0.00 0.00 0.00 62 1009.0
20260506200833 53 169 4.3 12.2 0.00 0.00 0.00 63 1008.8
20260506200332 53 155 4.3 11.3 0.00 0.00 0.00 64 1009.1
20260506200108 53 157 4.3 11.3 0.00 0.00 0.00 67 1009.0
20260506195331 53 164 7.0 12.2 0.00 0.00 0.00 66 1008.7
20260506195052 52 164 7.8 12.2 0.00 0.00 0.00 69 1008.6
20260506194331 52 168 7.0 12.2 0.00 0.00 0.00 69 1008.7
20260506193830 53 200 4.3 11.3 0.00 0.00 0.00 68 1008.6
20260506193331 53 144 3.5 9.6 0.00 0.00 0.00 70 1008.5
20260506192830 53 167 3.5 9.6 0.00 0.00 0.00 69 1008.7
20260506192331 53 157 4.3 13.0 0.00 0.00 0.00 69 1008.6
20260506192100 53 192 6.1 13.0 0.00 0.00 0.00 70 1008.4
20260506191332 53 164 4.3 11.3 0.00 0.00 0.00 70 1008.4
20260506190830 52 154 4.3 11.3 0.00 0.00 0.00 71 1008.4
20260506190328 52 147 6.1 11.3 0.00 0.00 0.00 72 1008.2
20260506185821 53 169 6.1 11.3 0.00 0.00 0.00 71 1008.3
20260506185316 53 119 4.3 11.3 0.00 0.00 0.00 71 1008.2
20260506184810 53 140 4.3 13.0 0.00 0.00 0.00 69 1007.9
20260506184303 54 103 6.1 13.0 0.00 0.00 0.00 67 1007.9
20260506183757 54 173 7.0 13.0 0.00 0.00 0.00 67 1007.6
20260506183256 54 140 7.0 13.0 0.00 0.00 0.00 67 1007.5
20260506182759 54 131 6.1 13.0 0.00 0.00 0.00 67 1007.4
20260506182256 54 205 6.1 11.3 0.00 0.00 0.00 67 1007.3
20260506181756 54 203 6.1 13.9 0.00 0.00 0.00 66 1007.3
20260506181257 54 146 4.3 13.9 0.00 0.00 0.00 65 1007.2
20260506180758 54 156 6.1 13.0 0.00 0.00 0.00 66 1007.1
20260506180256 54 159 7.0 13.0 0.00 0.00 0.00 65 1007.1
20260506175754 54 146 7.0 13.0 0.00 0.00 0.00 66 1006.9
20260506175254 54 142 7.8 15.6 0.00 0.00 0.00 67 1007.2
20260506174754 54 129 8.7 15.6 0.00 0.00 0.00 67 1007.1
20260506174252 54 148 7.8 15.6 0.00 0.00 0.00 67 1006.9
20260506173752 54 139 7.0 12.2 0.00 0.00 0.00 69 1006.9
20260506173746 54 128 7.0 13.0 0.00 0.00 0.00 69 1006.8
20260506173252 54 130 7.0 12.2 0.00 0.00 0.00 69 1006.8
20260506172252 54 159 7.8 13.9 0.00 0.00 0.00 68 1006.8
20260506171752 54 134 7.0 13.9 0.00 0.00 0.00 69 1006.8
20260506171252 54 117 7.0 10.4 0.00 0.00 0.00 69 1006.6
20260506170748 54 100 7.8 13.9 0.00 0.00 0.00 69 1006.7
20260506170248 53 134 7.8 13.9 0.00 0.00 0.00 71 1006.7
20260506165748 53 161 7.0 12.2 0.00 0.00 0.00 71 1006.5
20260506165248 53 173 6.1 12.2 0.00 0.00 0.00 69 1006.5
20260506164748 53 152 6.1 11.3 0.00 0.00 0.00 72 1006.5
20260506164248 54 183 6.1 13.0 0.00 0.00 0.00 70 1006.4
20260506163748 54 128 7.0 13.0 0.00 0.00 0.00 69 1006.5
20260506163248 54 159 7.8 13.0 0.00 0.00 0.00 69 1006.4
20260506162749 54 153 8.7 17.4 0.00 0.00 0.00 68 1006.4
20260506162737 55 146 8.7 17.4 0.00 0.00 0.00 67 1006.6
20260506161748 55 153 7.8 13.9 0.00 0.00 0.00 64 1006.5
20260506161246 55 177 9.6 18.2 0.00 0.00 0.00 63 1006.4
20260506160746 55 142 9.6 18.2 0.00 0.00 0.00 63 1006.3
20260506160246 56 200 8.7 18.2 0.00 0.00 0.00 62 1006.3
20260506155745 56 119 8.7 18.2 0.00 0.00 0.00 62 1006.4
20260506155515 56 184 8.7 17.4 0.00 0.00 0.00 61 1006.4
20260506154746 56 112 10.4 18.2 0.00 0.00 0.00 61 1006.5
20260506154246 56 139 9.6 18.2 0.00 0.00 0.00 61 1006.4
20260506153745 56 148 7.8 13.9 0.00 0.00 0.00 61 1006.4
20260506153248 56 131 8.7 20.0 0.00 0.00 0.00 61 1006.4
20260506152746 56 141 8.7 20.0 0.00 0.00 0.00 60 1006.5
20260506152246 56 105 7.0 16.5 0.00 0.00 0.00 60 1006.4
20260506151745 56 114 7.0 11.3 0.00 0.00 0.00 61 1006.7
20260506151245 56 136 7.8 16.5 0.00 0.00 0.00 63 1006.6
20260506151011 56 144 8.7 18.2 0.00 0.00 0.00 61 1006.7
20260506150242 56 121 7.8 19.1 0.00 0.00 0.00 62 1006.8
20260506145740 56 135 7.0 19.1 0.00 0.00 0.00 62 1006.7
20260506145506 56 32 7.8 13.9 0.00 0.00 0.00 62 1006.8
20260506144738 56 149 8.7 17.4 0.00 0.00 0.00 62 1006.7
20260506144236 56 143 8.7 24.3 0.00 0.00 0.00 62 1006.7
20260506144008 56 155 7.8 24.3 0.00 0.00 0.00 61 1006.7
20260506143235 56 140 8.7 17.4 0.00 0.00 0.00 63 1006.7
20260506142734 56 128 8.7 17.4 0.00 0.00 0.00 62 1006.9
20260506142456 56 55 8.7 15.6 0.00 0.00 0.00 61 1006.9
20260506141732 56 61 8.7 19.1 0.00 0.00 0.00 61 1006.9
20260506141229 56 162 7.8 19.1 0.00 0.00 0.00 61 1006.8
20260506140731 56 78 7.8 15.6 0.00 0.00 0.00 61 1006.8
20260506140223 57 153 8.7 15.6 0.00 0.00 0.00 60 1006.7
20260506135717 57 153 7.8 13.9 0.00 0.00 0.00 60 1006.8
20260506135442 57 141 7.0 13.9 0.00 0.00 0.00 60 1006.9
20260506134703 56 101 7.8 13.9 0.00 0.00 0.00 61 1006.9
20260506134203 56 163 8.7 15.6 0.00 0.00 0.00 62 1007.1
20260506133702 56 107 10.4 20.0 0.00 0.00 0.00 62 1006.9
20260506133201 56 153 10.4 20.0 0.00 0.00 0.00 64 1007.2
20260506132701 56 191 9.6 18.2 0.00 0.00 0.00 63 1007.4
20260506132201 56 150 10.4 18.2 0.00 0.00 0.00 65 1007.3
20260506131700 56 154 9.6 16.5 0.00 0.00 0.00 66 1007.4
20260506131201 56 185 8.7 13.9 0.00 0.00 0.00 66 1007.3
20260506130701 56 147 8.7 17.4 0.00 0.00 0.00 66 1007.3
20260506130201 55 131 8.7 19.1 0.00 0.00 0.00 69 1007.3
20260506125702 55 145 8.7 19.1 0.00 0.00 0.00 68 1007.3
20260506125201 55 173 8.7 15.6 0.00 0.00 0.00 71 1007.3
20260506124701 55 147 7.8 17.4 0.00 0.00 0.00 69 1007.3
20260506124425 55 179 8.7 17.4 0.00 0.00 0.00 69 1007.5
20260506123705 55 137 8.7 16.5 0.00 0.00 0.00 69 1007.4
20260506123204 55 143 8.7 17.4 0.00 0.00 0.00 68 1007.5
20260506122929 55 129 9.6 19.1 0.00 0.00 0.00 68 1007.6
20260506122205 55 141 10.4 26.1 0.00 0.00 0.00 70 1007.4
20260506121657 55 143 10.4 26.1 0.00 0.00 0.00 68 1007.5
20260506121151 55 142 10.4 19.1 0.00 0.00 0.00 70 1007.5
20260506120645 55 150 9.6 18.2 0.00 0.00 0.00 67 1007.7
20260506120409 56 158 8.7 17.4 0.00 0.00 0.00 68 1007.7
20260506115644 56 100 8.7 16.5 0.00 0.00 0.00 66 1007.7
20260506115143 56 128 7.8 18.2 0.00 0.00 0.00 63 1007.8
20260506114913 56 122 8.7 18.2 0.00 0.00 0.00 61 1007.9
20260506114144 56 161 10.4 19.1 0.00 0.00 0.00 61 1007.7
20260506113645 56 180 11.3 21.7 0.00 0.00 0.00 64 1008.1
20260506113143 56 155 9.6 21.7 0.00 0.00 0.00 62 1007.8
20260506112643 57 101 8.7 20.9 0.00 0.00 0.00 63 1007.7
20260506112418 56 103 7.8 16.5 0.00 0.00 0.00 63 1007.7
20260506111643 57 86 7.0 15.6 0.00 0.00 0.00 62 1007.8
20260506111148 57 116 7.0 18.2 0.00 0.00 0.00 61 1007.9
20260506110643 57 88 7.8 18.2 0.00 0.00 0.00 61 1007.8
20260506110144 57 134 8.7 13.9 0.00 0.00 0.00 61 1008.1
20260506105643 56 96 8.7 17.4 0.00 0.00 0.00 60 1007.9
20260506105143 57 139 7.8 17.4 0.00 0.00 0.00 60 1008.1
20260506104644 57 171 7.8 17.4 0.00 0.00 0.00 58 1008.1
20260506104137 56 77 7.0 15.6 0.00 0.00 0.00 60 1007.9
20260506103903 56 97 7.0 16.5 0.00 0.00 0.00 60 1008.3
20260506103136 56 106 8.7 19.1 0.00 0.00 0.00 62 1008.5
20260506102638 56 90 7.8 19.1 0.00 0.00 0.00 62 1008.6
20260506102137 56 67 7.8 16.5 0.00 0.00 0.00 63 1008.7
20260506101637 56 140 8.7 16.5 0.00 0.00 0.00 59 1008.6
20260506101137 56 82 7.8 15.6 0.00 0.00 0.00 57 1008.7
20260506100637 56 131 8.7 17.4 0.00 0.00 0.00 58 1008.6
20260506100403 56 99 8.7 17.4 0.00 0.00 0.00 59 1008.6